This demonstration page uses our WeatherBlox Daily Observations layout. Learn more.

Left ArrowRight Arrow

Hourly Observations for April 12, 2016

Temp ( °F °C ) Dew Point ( °F °C ) Humidity (%) Winds ( mph kmh ) Pressure ( in mb ) Visibility ( mi km ) Precip ( " mm )
12:53 am 00:53 Cloudy 64 17.8 55 12.8 73 73 S 12 19 30.09 1019 10 16 0.00 0.00
1:53 am 01:53 Cloudy with Light Rain 63 17.2 56 13.3 78 78 SSW 8 13 30.10 1019 10 16 0.00 0.03
2:53 am 02:53 Cloudy with Light Rain 61 16.1 56 13.3 84 84 WSW 5 7 30.09 1019 10 16 0.01 0.25
3:53 am 03:53 Cloudy 62 16.7 55 12.8 78 78 SSW 5 7 30.08 1019 10 16 0.01 0.25
4:53 am 04:53 Cloudy 61 16.1 55 12.8 81 81 SSW 6 9 30.09 1019 10 16 0.00 0.00
5:53 am 05:53 Cloudy 61 16.1 54 12.2 78 78 SSW 6 9 30.08 1019 10 16 0.00 0.00
6:53 am 06:53 Cloudy 60 15.6 53 11.7 78 78 S 3 6 30.10 1019 10 16 0.00 0.00
7:53 am 07:53 Cloudy 60 15.6 53 11.7 78 78 Calm 30.12 1020 10 16 0.00 0.00
8:53 am 08:53 Cloudy 60 15.6 53 11.7 78 78 E 5 7 30.13 1020 10 16 0.00 0.00
9:53 am 09:53 Cloudy 60 15.6 53 11.7 78 78 ESE 6 9 30.13 1020 10 16 0.00 0.00
10:53 am 10:53 Cloudy 62 16.7 53 11.7 73 73 E 3 6 30.14 1021 10 16 0.00 0.00
11:53 am 11:53 Cloudy 63 17.2 53 11.7 70 70 WNW 5 7 30.14 1021 10 16 0.00 0.00
12:53 pm 12:53 Cloudy 65 18.3 54 12.2 68 68 NNW 5 7 30.14 1021 10 16 0.00 0.00
1:53 pm 13:53 Cloudy 64 17.8 54 12.2 70 70 NNW 5 7 30.13 1020 10 16 0.00 0.00
2:53 pm 14:53 Mostly Cloudy 66 18.9 55 12.8 68 68 Calm 30.11 1020 10 16 0.00 0.03
3:53 pm 15:53 Mostly Cloudy 68 20 56 13.3 65 65 VRB 6 9 30.09 1019 10 16 0.00 0.00
4:53 pm 16:53 Mostly Sunny 69 20.6 54 12.2 59 59 S 10 17 30.08 1019 10 16 0.00 0.00
5:53 pm 17:53 Partly Cloudy 68 20 55 12.8 63 63 S 8 13 30.08 1019 10 16 0.00 0.00
6:53 pm 18:53 Mostly Cloudy 67 19.4 55 12.8 66 66 SW 5 7 30.08 1019 10 16 0.00 0.00
7:09 pm 19:09 Mostly Cloudy with Nearby Thunderstorms 67 19.4 56 13.3 68 68 SW 5 7 30.06 1018 10 16 0.00 0.00
7:43 pm 19:43 Mostly Sunny 65 18.3 54 12.2 68 68 S 8 13 30.06 1018 10 16 0.00 0.00
7:53 pm 19:53 Mostly Cloudy 65 18.3 49 9.4 56 56 SSW 7 11 30.07 1018 10 16 0.00 0.00
8:14 pm 20:14 Mostly Cloudy with Nearby Thunderstorms 63 17 52 11 68 68 SE 5 7 30.06 1018 10 16 0.00 0.00
8:40 pm 20:40 Cloudy 63 17 52 11 68 68 S 7 11 30.06 1018 10 16 0.00 0.00
8:53 pm 20:53 Cloudy 63 17.2 48 8.9 58 58 SSW 8 13 30.09 1019 10 16 0.00 0.00
9:53 pm 21:53 Mostly Clear 60 15.6 49 9.4 67 67 W 5 7 30.11 1020 10 16 0.00 0.00
10:53 pm 22:53 Clear 57 13.9 47 8.3 69 69 S 3 6 30.12 1020 10 16 0.00 0.00
11:53 pm 23:53 Partly Cloudy 56 13.3 44 6.7 65 65 Calm 30.14 1021 9 14 0.00 0.00

Powered by AerisWeather